Year,Month,Day,Hour,Minute,Value (Times are PST for temperature in C)
2012,08,05,00,00,21.30
2012,08,05,00,01,21.30
2012,08,05,00,02,21.30
2012,08,05,00,03,21.20
2012,08,05,00,04,21.20
2012,08,05,00,05,21.20
2012,08,05,00,06,21.20
2012,08,05,00,07,21.20
2012,08,05,00,08,21.10
2012,08,05,00,09,21.10
2012,08,05,00,10,21.10
2012,08,05,00,11,21.10
2012,08,05,00,12,21.00
2012,08,05,00,13,21.00
2012,08,05,00,14,21.00
2012,08,05,00,15,21.00
2012,08,05,00,16,20.90
2012,08,05,00,17,20.90
2012,08,05,00,18,20.90
2012,08,05,00,19,20.90
2012,08,05,00,20,20.90
2012,08,05,00,21,20.90
2012,08,05,00,22,20.90
2012,08,05,00,23,21.00
2012,08,05,00,24,21.10
2012,08,05,00,25,21.10
2012,08,05,00,26,21.20
2012,08,05,00,27,21.20
2012,08,05,00,28,21.30
2012,08,05,00,29,21.20
2012,08,05,00,30,21.20
2012,08,05,00,31,21.20
2012,08,05,00,32,21.20
2012,08,05,00,33,21.20
2012,08,05,00,34,21.20
2012,08,05,00,35,21.10
2012,08,05,00,36,21.00
2012,08,05,00,37,20.90
2012,08,05,00,38,20.80
2012,08,05,00,39,20.80
2012,08,05,00,40,20.70
2012,08,05,00,41,20.70
2012,08,05,00,42,20.60
2012,08,05,00,43,20.60
2012,08,05,00,44,20.50
2012,08,05,00,45,20.40
2012,08,05,00,46,20.30
2012,08,05,00,47,20.30
2012,08,05,00,48,20.20
2012,08,05,00,49,20.20
2012,08,05,00,50,20.10
2012,08,05,00,51,20.10
2012,08,05,00,52,20.10
2012,08,05,00,53,20.00
2012,08,05,00,54,20.00
2012,08,05,00,55,19.90
2012,08,05,00,56,19.90
2012,08,05,00,57,19.90
2012,08,05,00,58,19.90
2012,08,05,00,59,19.80
2012,08,05,01,00,19.80
2012,08,05,01,01,19.80
2012,08,05,01,02,19.70
2012,08,05,01,03,19.70
2012,08,05,01,04,19.70
2012,08,05,01,05,19.70
2012,08,05,01,06,19.60
2012,08,05,01,07,19.60
2012,08,05,01,08,19.60
2012,08,05,01,09,19.60
2012,08,05,01,10,19.50
2012,08,05,01,11,19.50
2012,08,05,01,12,19.50
2012,08,05,01,13,19.40
2012,08,05,01,14,19.40
2012,08,05,01,15,19.40
2012,08,05,01,16,19.40
2012,08,05,01,17,19.30
2012,08,05,01,18,19.30
2012,08,05,01,19,19.30
2012,08,05,01,20,19.30
2012,08,05,01,21,19.30
2012,08,05,01,22,19.30
2012,08,05,01,23,19.30
2012,08,05,01,24,19.30
2012,08,05,01,25,19.20
2012,08,05,01,26,19.20
2012,08,05,01,27,19.20
2012,08,05,01,28,19.20
2012,08,05,01,29,19.10
2012,08,05,01,30,19.10
2012,08,05,01,31,19.10
2012,08,05,01,32,19.10
2012,08,05,01,33,19.10
2012,08,05,01,34,19.10
2012,08,05,01,35,19.00
2012,08,05,01,36,19.00
2012,08,05,01,37,19.00
2012,08,05,01,38,19.00
2012,08,05,01,39,18.90
2012,08,05,01,40,18.90
2012,08,05,01,41,18.90
2012,08,05,01,42,18.90
2012,08,05,01,43,18.90
2012,08,05,01,44,18.80
2012,08,05,01,45,18.80
2012,08,05,01,46,18.80
2012,08,05,01,47,18.80
2012,08,05,01,48,18.80
2012,08,05,01,49,18.80
2012,08,05,01,50,18.80
2012,08,05,01,51,18.80
2012,08,05,01,52,18.80
2012,08,05,01,53,18.80
2012,08,05,01,54,18.70
2012,08,05,01,55,18.70
2012,08,05,01,56,18.70
2012,08,05,01,57,18.70
2012,08,05,01,58,18.70
2012,08,05,01,59,18.70
2012,08,05,02,00,18.70
2012,08,05,02,01,18.60
2012,08,05,02,02,18.60
2012,08,05,02,03,18.60
2012,08,05,02,04,18.60
2012,08,05,02,05,18.60
2012,08,05,02,06,18.60
2012,08,05,02,07,18.60
2012,08,05,02,08,18.60
2012,08,05,02,09,18.60
2012,08,05,02,10,18.50
2012,08,05,02,11,18.50
2012,08,05,02,12,18.50
2012,08,05,02,13,18.50
2012,08,05,02,14,18.50
2012,08,05,02,15,18.40
2012,08,05,02,16,18.40
2012,08,05,02,17,18.40
2012,08,05,02,18,18.40
2012,08,05,02,19,18.40
2012,08,05,02,20,18.40
2012,08,05,02,21,18.30
2012,08,05,02,22,18.30
2012,08,05,02,23,18.30
2012,08,05,02,24,18.30
2012,08,05,02,25,18.30
2012,08,05,02,26,18.20
2012,08,05,02,27,18.20
2012,08,05,02,28,18.20
2012,08,05,02,29,18.20
2012,08,05,02,30,18.20
2012,08,05,02,31,18.20
2012,08,05,02,32,18.20
2012,08,05,02,33,18.10
2012,08,05,02,34,18.10
2012,08,05,02,35,18.10
2012,08,05,02,36,18.10
2012,08,05,02,37,18.10
2012,08,05,02,38,18.10
2012,08,05,02,39,18.10
2012,08,05,02,40,18.10
2012,08,05,02,41,18.00
2012,08,05,02,42,18.00
2012,08,05,02,43,18.00
2012,08,05,02,44,18.00
2012,08,05,02,45,18.00
2012,08,05,02,46,17.90
2012,08,05,02,47,17.90
2012,08,05,02,48,17.90
2012,08,05,02,49,17.90
2012,08,05,02,50,17.90
2012,08,05,02,51,17.90
2012,08,05,02,52,17.90
2012,08,05,02,53,17.80
2012,08,05,02,54,17.80
2012,08,05,02,55,17.80
2012,08,05,02,56,17.80
2012,08,05,02,57,17.80
2012,08,05,02,58,17.80
2012,08,05,02,59,17.70
2012,08,05,03,00,17.70
2012,08,05,03,01,17.70
2012,08,05,03,02,17.70
2012,08,05,03,03,17.60
2012,08,05,03,04,17.60
2012,08,05,03,05,17.60
2012,08,05,03,06,17.60
2012,08,05,03,07,17.60
2012,08,05,03,08,17.60
2012,08,05,03,09,17.50
2012,08,05,03,10,17.50
2012,08,05,03,11,17.50
2012,08,05,03,12,17.50
2012,08,05,03,13,17.50
2012,08,05,03,14,17.40
2012,08,05,03,15,17.40
2012,08,05,03,16,17.40
2012,08,05,03,17,17.40
2012,08,05,03,18,17.40
2012,08,05,03,19,17.40
2012,08,05,03,20,17.40
2012,08,05,03,21,17.40
2012,08,05,03,22,17.40
2012,08,05,03,23,17.40
2012,08,05,03,24,17.30
2012,08,05,03,25,17.30
2012,08,05,03,26,17.30
2012,08,05,03,27,17.30
2012,08,05,03,28,17.30
2012,08,05,03,29,17.30
2012,08,05,03,30,17.30
2012,08,05,03,31,17.30
2012,08,05,03,32,17.30
2012,08,05,03,33,17.30
2012,08,05,03,34,17.20
2012,08,05,03,35,17.20
2012,08,05,03,36,17.20
2012,08,05,03,37,17.20
2012,08,05,03,38,17.20
2012,08,05,03,39,17.30
2012,08,05,03,40,17.30
2012,08,05,03,41,17.30
2012,08,05,03,42,17.30
2012,08,05,03,43,17.30
2012,08,05,03,44,17.30
2012,08,05,03,45,17.30
2012,08,05,03,46,17.30
2012,08,05,03,47,17.30
2012,08,05,03,48,17.30
2012,08,05,03,49,17.30
2012,08,05,03,50,17.20
2012,08,05,03,51,17.20
2012,08,05,03,52,17.20
2012,08,05,03,53,17.20
2012,08,05,03,54,17.20
2012,08,05,03,55,17.20
2012,08,05,03,56,17.10
2012,08,05,03,57,17.10
2012,08,05,03,58,17.10
2012,08,05,03,59,17.10
2012,08,05,04,00,17.00
2012,08,05,04,01,17.00
2012,08,05,04,02,17.00
2012,08,05,04,03,16.90
2012,08,05,04,04,16.90
2012,08,05,04,05,16.90
2012,08,05,04,06,16.90
2012,08,05,04,07,16.90
2012,08,05,04,08,16.80
2012,08,05,04,09,16.80
2012,08,05,04,10,16.80
2012,08,05,04,11,16.80
2012,08,05,04,12,16.80
2012,08,05,04,13,16.70
2012,08,05,04,14,16.70
2012,08,05,04,15,16.70
2012,08,05,04,16,16.70
2012,08,05,04,17,16.70
2012,08,05,04,18,16.70
2012,08,05,04,19,16.80
2012,08,05,04,20,16.80
2012,08,05,04,21,16.90
2012,08,05,04,22,17.00
2012,08,05,04,23,17.00
2012,08,05,04,24,17.10
2012,08,05,04,25,17.10
2012,08,05,04,26,17.10
2012,08,05,04,27,17.10
2012,08,05,04,28,17.10
2012,08,05,04,29,17.00
2012,08,05,04,30,17.00
2012,08,05,04,31,16.90
2012,08,05,04,32,16.90
2012,08,05,04,33,16.90
2012,08,05,04,34,16.80
2012,08,05,04,35,16.80
2012,08,05,04,36,16.80
2012,08,05,04,37,16.80
2012,08,05,04,38,16.80
2012,08,05,04,39,16.70
2012,08,05,04,40,16.70
2012,08,05,04,41,16.70
2012,08,05,04,42,16.70
2012,08,05,04,43,16.70
2012,08,05,04,44,16.70
2012,08,05,04,45,16.70
2012,08,05,04,46,16.60
2012,08,05,04,47,16.60
2012,08,05,04,48,16.60
2012,08,05,04,49,16.60
2012,08,05,04,50,16.60
2012,08,05,04,51,16.50
2012,08,05,04,52,16.50
2012,08,05,04,53,16.50
2012,08,05,04,54,16.50
2012,08,05,04,55,16.40
2012,08,05,04,56,16.40
2012,08,05,04,57,16.40
2012,08,05,04,58,16.40
2012,08,05,04,59,16.40
2012,08,05,05,00,16.30
2012,08,05,05,01,16.30
2012,08,05,05,02,16.30
2012,08,05,05,03,16.30
2012,08,05,05,04,16.30
2012,08,05,05,05,16.30
2012,08,05,05,06,16.20
2012,08,05,05,07,16.20
2012,08,05,05,08,16.20
2012,08,05,05,09,16.20
2012,08,05,05,10,16.20
2012,08,05,05,11,16.20
2012,08,05,05,12,16.20
2012,08,05,05,13,16.10
2012,08,05,05,14,16.10
2012,08,05,05,15,16.10
2012,08,05,05,16,16.10
2012,08,05,05,17,16.10
2012,08,05,05,18,16.00
2012,08,05,05,19,16.00
2012,08,05,05,20,16.00
2012,08,05,05,21,15.90
2012,08,05,05,22,15.90
2012,08,05,05,23,15.90
2012,08,05,05,24,15.90
2012,08,05,05,25,15.90
2012,08,05,05,26,15.80
2012,08,05,05,27,15.80
2012,08,05,05,28,15.80
2012,08,05,05,29,15.80
2012,08,05,05,30,15.80
2012,08,05,05,31,15.80
2012,08,05,05,32,15.80
2012,08,05,05,33,15.80
2012,08,05,05,34,15.70
2012,08,05,05,35,15.70
2012,08,05,05,36,15.70
2012,08,05,05,37,15.70
2012,08,05,05,38,15.70
2012,08,05,05,39,15.70
2012,08,05,05,40,15.70
2012,08,05,05,41,15.70
2012,08,05,05,42,15.70
2012,08,05,05,43,15.60
2012,08,05,05,44,15.60
2012,08,05,05,45,15.60
2012,08,05,05,46,15.60
2012,08,05,05,47,15.60
2012,08,05,05,48,15.60
2012,08,05,05,49,15.60
2012,08,05,05,50,15.60
2012,08,05,05,51,15.60
2012,08,05,05,52,15.50
2012,08,05,05,53,15.50
2012,08,05,05,54,15.50
2012,08,05,05,55,15.50
2012,08,05,05,56,15.50
2012,08,05,05,57,15.40
2012,08,05,05,58,15.40
2012,08,05,05,59,15.40
2012,08,05,06,00,15.40
2012,08,05,06,01,15.40
2012,08,05,06,02,15.40
2012,08,05,06,03,15.40
2012,08,05,06,04,15.40
2012,08,05,06,05,15.40
2012,08,05,06,06,15.40
2012,08,05,06,07,15.30
2012,08,05,06,08,15.30
2012,08,05,06,09,15.30
2012,08,05,06,10,15.30
2012,08,05,06,11,15.30
2012,08,05,06,12,15.30
2012,08,05,06,13,15.30
2012,08,05,06,14,15.30
2012,08,05,06,15,15.30
2012,08,05,06,16,15.30
2012,08,05,06,17,15.30
2012,08,05,06,18,15.30
2012,08,05,06,19,15.30
2012,08,05,06,20,15.30
2012,08,05,06,21,15.30
2012,08,05,06,22,15.30
2012,08,05,06,23,15.30
2012,08,05,06,24,15.30
2012,08,05,06,25,15.30
2012,08,05,06,26,15.30
2012,08,05,06,27,15.30
2012,08,05,06,28,15.30
2012,08,05,06,29,15.30
2012,08,05,06,30,15.30
2012,08,05,06,31,15.30
2012,08,05,06,32,15.20
2012,08,05,06,33,15.20
2012,08,05,06,34,15.20
2012,08,05,06,35,15.20
2012,08,05,06,36,15.20
2012,08,05,06,37,15.20
2012,08,05,06,38,15.20
2012,08,05,06,39,15.20
2012,08,05,06,40,15.20
2012,08,05,06,41,15.20
2012,08,05,06,42,15.20
2012,08,05,06,43,15.20
2012,08,05,06,44,15.20
2012,08,05,06,45,15.20
2012,08,05,06,46,15.20
2012,08,05,06,47,15.20
2012,08,05,06,48,15.10
2012,08,05,06,49,15.20
2012,08,05,06,50,15.10
2012,08,05,06,51,15.10
2012,08,05,06,52,15.10
2012,08,05,06,53,15.10
2012,08,05,06,54,15.10
2012,08,05,06,55,15.10
2012,08,05,06,56,15.10
2012,08,05,06,57,15.10
2012,08,05,06,58,15.10
2012,08,05,06,59,15.10
2012,08,05,07,00,15.10
2012,08,05,07,01,15.10
2012,08,05,07,02,15.10
2012,08,05,07,03,15.10
2012,08,05,07,04,15.10
2012,08,05,07,05,15.10
2012,08,05,07,06,15.10
2012,08,05,07,07,15.10
2012,08,05,07,08,15.10
2012,08,05,07,09,15.10
2012,08,05,07,10,15.10
2012,08,05,07,11,15.10
2012,08,05,07,12,15.10
2012,08,05,07,13,15.10
2012,08,05,07,14,15.10
2012,08,05,07,15,15.10
2012,08,05,07,16,15.10
2012,08,05,07,17,15.10
2012,08,05,07,18,15.20
2012,08,05,07,19,15.20
2012,08,05,07,20,15.20
2012,08,05,07,21,15.20
2012,08,05,07,22,15.20
2012,08,05,07,23,15.30
2012,08,05,07,24,15.30
2012,08,05,07,25,15.40
2012,08,05,07,26,15.40
2012,08,05,07,27,15.50
2012,08,05,07,28,15.60
2012,08,05,07,29,15.60
2012,08,05,07,30,15.60
2012,08,05,07,31,15.70
2012,08,05,07,32,15.70
2012,08,05,07,33,15.80
2012,08,05,07,34,15.90
2012,08,05,07,35,15.90
2012,08,05,07,36,16.00
2012,08,05,07,37,16.10
2012,08,05,07,38,16.10
2012,08,05,07,39,16.20
2012,08,05,07,40,16.30
2012,08,05,07,41,16.40
2012,08,05,07,42,16.40
2012,08,05,07,43,16.50
2012,08,05,07,44,16.60
2012,08,05,07,45,16.70
2012,08,05,07,46,16.80
2012,08,05,07,47,16.90
2012,08,05,07,48,16.90
2012,08,05,07,49,17.00
2012,08,05,07,50,17.10
2012,08,05,07,51,17.10
2012,08,05,07,52,17.20
2012,08,05,07,53,17.30
2012,08,05,07,54,17.30
2012,08,05,07,55,17.40
2012,08,05,07,56,17.50
2012,08,05,07,57,17.60
2012,08,05,07,58,17.70
2012,08,05,07,59,17.70
2012,08,05,08,00,17.80
2012,08,05,08,01,17.90
2012,08,05,08,02,18.00
2012,08,05,08,03,18.10
2012,08,05,08,04,18.20
2012,08,05,08,05,18.20
2012,08,05,08,06,18.30
2012,08,05,08,07,18.40
2012,08,05,08,08,18.40
2012,08,05,08,09,18.50
2012,08,05,08,10,18.50
2012,08,05,08,11,18.60
2012,08,05,08,12,18.60
2012,08,05,08,13,18.70
2012,08,05,08,14,18.70
2012,08,05,08,15,18.70
2012,08,05,08,16,18.80
2012,08,05,08,17,18.80
2012,08,05,08,18,18.80
2012,08,05,08,19,18.80
2012,08,05,08,20,18.90
2012,08,05,08,21,18.90
2012,08,05,08,22,19.00
2012,08,05,08,23,19.10
2012,08,05,08,24,19.10
2012,08,05,08,25,19.20
2012,08,05,08,26,19.20
2012,08,05,08,27,19.30
2012,08,05,08,28,19.30
2012,08,05,08,29,19.30
2012,08,05,08,30,19.40
2012,08,05,08,31,19.40
2012,08,05,08,32,19.50
2012,08,05,08,33,19.50
2012,08,05,08,34,19.60
2012,08,05,08,35,19.60
2012,08,05,08,36,19.70
2012,08,05,08,37,19.70
2012,08,05,08,38,19.70
2012,08,05,08,39,19.70
2012,08,05,08,40,19.80
2012,08,05,08,41,19.80
2012,08,05,08,42,19.80
2012,08,05,08,43,19.90
2012,08,05,08,44,19.90
2012,08,05,08,45,20.00
2012,08,05,08,46,20.10
2012,08,05,08,47,20.20
2012,08,05,08,48,20.20
2012,08,05,08,49,20.30
2012,08,05,08,50,20.40
2012,08,05,08,51,20.40
2012,08,05,08,52,20.50
2012,08,05,08,53,20.60
2012,08,05,08,54,20.60
2012,08,05,08,55,20.70
2012,08,05,08,56,20.80
2012,08,05,08,57,20.90
2012,08,05,08,58,20.90
2012,08,05,08,59,21.00
2012,08,05,09,00,21.10
2012,08,05,09,01,21.10
2012,08,05,09,02,21.20
2012,08,05,09,03,21.20
2012,08,05,09,04,21.30
2012,08,05,09,05,21.30
2012,08,05,09,06,21.40
2012,08,05,09,07,21.40
2012,08,05,09,08,21.30
2012,08,05,09,09,21.20
2012,08,05,09,10,21.10
2012,08,05,09,11,20.90
2012,08,05,09,12,20.80
2012,08,05,09,13,20.70
2012,08,05,09,14,20.70
2012,08,05,09,15,20.70
2012,08,05,09,16,20.70
2012,08,05,09,17,20.70
2012,08,05,09,18,20.70
2012,08,05,09,19,20.80
2012,08,05,09,20,20.80
2012,08,05,09,21,20.80
2012,08,05,09,22,20.80
2012,08,05,09,23,20.80
2012,08,05,09,24,20.80
2012,08,05,09,25,20.80
2012,08,05,09,26,20.80
2012,08,05,09,27,20.90
2012,08,05,09,28,21.00
2012,08,05,09,29,21.00
2012,08,05,09,30,21.10
2012,08,05,09,31,21.10
2012,08,05,09,32,21.20
2012,08,05,09,33,21.20
2012,08,05,09,34,21.30
2012,08,05,09,35,21.30
2012,08,05,09,36,21.30
2012,08,05,09,37,21.40
2012,08,05,09,38,21.50
2012,08,05,09,39,21.60
2012,08,05,09,40,21.60
2012,08,05,09,41,21.60
2012,08,05,09,42,21.60
2012,08,05,09,43,21.60
2012,08,05,09,44,21.60
2012,08,05,09,45,21.60
2012,08,05,09,46,21.70
2012,08,05,09,47,21.70
2012,08,05,09,48,21.80
2012,08,05,09,49,21.80
2012,08,05,09,50,21.80
2012,08,05,09,51,21.90
2012,08,05,09,52,21.90
2012,08,05,09,53,22.00
2012,08,05,09,54,22.00
2012,08,05,09,55,22.10
2012,08,05,09,56,22.10
2012,08,05,09,57,22.10
2012,08,05,09,58,22.20
2012,08,05,09,59,22.20
2012,08,05,10,00,22.20
2012,08,05,10,01,22.20
2012,08,05,10,02,22.20
2012,08,05,10,03,22.20
2012,08,05,10,04,22.20
2012,08,05,10,05,22.30
2012,08,05,10,06,22.30
2012,08,05,10,07,22.30
2012,08,05,10,08,22.30
2012,08,05,10,09,22.30
2012,08,05,10,10,22.30
2012,08,05,10,11,22.40
2012,08,05,10,12,22.50
2012,08,05,10,13,22.60
2012,08,05,10,14,22.80
2012,08,05,10,15,22.90
2012,08,05,10,16,23.00
2012,08,05,10,17,23.00
2012,08,05,10,18,23.20
2012,08,05,10,19,23.30
2012,08,05,10,20,23.50
2012,08,05,10,21,23.50
2012,08,05,10,22,23.60
2012,08,05,10,23,23.70
2012,08,05,10,24,23.80
2012,08,05,10,25,23.90
2012,08,05,10,26,24.00
2012,08,05,10,27,24.00
2012,08,05,10,28,24.00
2012,08,05,10,29,24.00
2012,08,05,10,30,23.90
2012,08,05,10,31,23.80
2012,08,05,10,32,23.80
2012,08,05,10,33,23.70
2012,08,05,10,34,23.70
2012,08,05,10,35,23.70
2012,08,05,10,36,23.70
2012,08,05,10,37,23.70
2012,08,05,10,38,23.70
2012,08,05,10,39,23.70
2012,08,05,10,40,23.80
2012,08,05,10,41,23.90
2012,08,05,10,42,24.00
2012,08,05,10,43,24.00
2012,08,05,10,44,24.10
2012,08,05,10,45,24.10
2012,08,05,10,46,24.20
2012,08,05,10,47,24.30
2012,08,05,10,48,24.40
2012,08,05,10,49,24.50
2012,08,05,10,50,24.60
2012,08,05,10,51,24.70
2012,08,05,10,52,24.80
2012,08,05,10,53,24.90
2012,08,05,10,54,25.00
2012,08,05,10,55,25.10
2012,08,05,10,56,25.10
2012,08,05,10,57,25.10
2012,08,05,10,58,25.10
2012,08,05,10,59,25.10
2012,08,05,11,00,25.10
2012,08,05,11,01,25.10
2012,08,05,11,02,25.10
2012,08,05,11,03,25.10
2012,08,05,11,04,25.10
2012,08,05,11,05,25.10
2012,08,05,11,06,25.10
2012,08,05,11,07,25.10
2012,08,05,11,08,25.10
2012,08,05,11,09,25.10
2012,08,05,11,10,25.20
2012,08,05,11,11,25.20
2012,08,05,11,12,25.30
2012,08,05,11,13,25.30
2012,08,05,11,14,25.30
2012,08,05,11,15,25.30
2012,08,05,11,16,25.40
2012,08,05,11,17,25.40
2012,08,05,11,18,25.40
2012,08,05,11,19,25.40
2012,08,05,11,20,25.40
2012,08,05,11,21,25.50
2012,08,05,11,22,25.60
2012,08,05,11,23,25.70
2012,08,05,11,24,25.70
2012,08,05,11,25,25.80
2012,08,05,11,26,25.80
2012,08,05,11,27,25.80
2012,08,05,11,28,25.90
2012,08,05,11,29,25.90
2012,08,05,11,30,26.00
2012,08,05,11,31,26.00
2012,08,05,11,32,26.10
2012,08,05,11,33,26.20
2012,08,05,11,34,26.20
2012,08,05,11,35,26.30
2012,08,05,11,36,26.50
2012,08,05,11,37,26.60
2012,08,05,11,38,26.60
2012,08,05,11,39,26.70
2012,08,05,11,40,26.80
2012,08,05,11,41,26.80
2012,08,05,11,42,26.80
2012,08,05,11,43,26.80
2012,08,05,11,44,26.80
2012,08,05,11,45,26.80
2012,08,05,11,46,26.90
2012,08,05,11,47,27.00
2012,08,05,11,48,27.00
2012,08,05,11,49,27.10
2012,08,05,11,50,27.20
2012,08,05,11,51,27.30
2012,08,05,11,52,27.30
2012,08,05,11,53,27.40
2012,08,05,11,54,27.60
2012,08,05,11,55,27.70
2012,08,05,11,56,27.80
2012,08,05,11,57,27.90
2012,08,05,11,58,27.90
2012,08,05,11,59,28.00
2012,08,05,12,00,28.10
2012,08,05,12,01,28.10
2012,08,05,12,02,28.20
2012,08,05,12,03,28.20
2012,08,05,12,04,28.30
2012,08,05,12,05,28.40
2012,08,05,12,06,28.40
2012,08,05,12,07,28.40
2012,08,05,12,08,28.40
2012,08,05,12,09,28.40
2012,08,05,12,10,28.50
2012,08,05,12,11,28.50
2012,08,05,12,12,28.60
2012,08,05,12,13,28.60
2012,08,05,12,14,28.70
2012,08,05,12,15,28.70
2012,08,05,12,16,28.70
2012,08,05,12,17,28.70
2012,08,05,12,18,28.80
2012,08,05,12,19,28.80
2012,08,05,12,20,28.80
2012,08,05,12,21,28.80
2012,08,05,12,22,28.90
2012,08,05,12,23,28.90
2012,08,05,12,24,28.90
2012,08,05,12,25,29.00
2012,08,05,12,26,29.00
2012,08,05,12,27,29.00
2012,08,05,12,28,29.00
2012,08,05,12,29,29.00
2012,08,05,12,30,29.10
2012,08,05,12,31,29.20
2012,08,05,12,32,29.20
2012,08,05,12,33,29.20
2012,08,05,12,34,29.30
2012,08,05,12,35,29.30
2012,08,05,12,36,29.40
2012,08,05,12,37,29.40
2012,08,05,12,38,29.40
2012,08,05,12,39,29.40
2012,08,05,12,40,29.40
2012,08,05,12,41,29.50
2012,08,05,12,42,29.60
2012,08,05,12,43,29.70
2012,08,05,12,44,29.70
2012,08,05,12,45,29.80
2012,08,05,12,46,29.80
2012,08,05,12,47,29.90
2012,08,05,12,48,30.10
2012,08,05,12,49,30.20
2012,08,05,12,50,30.40
2012,08,05,12,51,30.50
2012,08,05,12,52,30.70
2012,08,05,12,53,30.80
2012,08,05,12,54,30.80
2012,08,05,12,55,30.90
2012,08,05,12,56,30.90
2012,08,05,12,57,31.00
2012,08,05,12,58,31.00
2012,08,05,12,59,31.00
2012,08,05,13,00,31.00
2012,08,05,13,01,31.00
2012,08,05,13,02,31.00
2012,08,05,13,03,31.10
2012,08,05,13,04,31.10
2012,08,05,13,05,31.20
2012,08,05,13,06,31.30
2012,08,05,13,07,31.30
2012,08,05,13,08,31.40
2012,08,05,13,09,31.40
2012,08,05,13,10,31.50
2012,08,05,13,11,31.50
2012,08,05,13,12,31.60
2012,08,05,13,13,31.70
2012,08,05,13,14,31.80
2012,08,05,13,15,31.90
2012,08,05,13,16,31.90
2012,08,05,13,17,31.90
2012,08,05,13,18,31.90
2012,08,05,13,19,32.00
2012,08,05,13,20,32.10
2012,08,05,13,21,32.10
2012,08,05,13,22,32.20
2012,08,05,13,23,32.30
2012,08,05,13,24,32.30
2012,08,05,13,25,32.40
2012,08,05,13,26,32.40
2012,08,05,13,27,32.50
2012,08,05,13,28,32.50
2012,08,05,13,29,32.60
2012,08,05,13,30,32.70
2012,08,05,13,31,32.80
2012,08,05,13,32,33.00
2012,08,05,13,33,33.10
2012,08,05,13,34,33.20
2012,08,05,13,35,33.20
2012,08,05,13,36,33.20
2012,08,05,13,37,33.30
2012,08,05,13,38,33.20
2012,08,05,13,39,33.20
2012,08,05,13,40,33.30
2012,08,05,13,41,33.30
2012,08,05,13,42,33.30
2012,08,05,13,43,33.30
2012,08,05,13,44,33.30
2012,08,05,13,45,33.30
2012,08,05,13,46,33.20
2012,08,05,13,47,33.10
2012,08,05,13,48,33.00
2012,08,05,13,49,33.00
2012,08,05,13,50,32.90
2012,08,05,13,51,33.00
2012,08,05,13,52,33.10
2012,08,05,13,53,33.10
2012,08,05,13,54,33.10
2012,08,05,13,55,33.00
2012,08,05,13,56,33.00
2012,08,05,13,57,32.90
2012,08,05,13,58,32.90
2012,08,05,13,59,32.90
2012,08,05,14,00,33.00
2012,08,05,14,01,33.00
2012,08,05,14,02,33.10
2012,08,05,14,03,33.10
2012,08,05,14,04,33.20
2012,08,05,14,05,33.20
2012,08,05,14,06,33.20
2012,08,05,14,07,33.30
2012,08,05,14,08,33.30
2012,08,05,14,09,33.50
2012,08,05,14,10,33.60
2012,08,05,14,11,33.70
2012,08,05,14,12,33.80
2012,08,05,14,13,33.80
2012,08,05,14,14,33.80
2012,08,05,14,15,33.70
2012,08,05,14,16,33.70
2012,08,05,14,17,33.70
2012,08,05,14,18,33.70
2012,08,05,14,19,33.70
2012,08,05,14,20,33.80
2012,08,05,14,21,34.00
2012,08,05,14,22,34.10
2012,08,05,14,23,34.10
2012,08,05,14,24,34.10
2012,08,05,14,25,34.10
2012,08,05,14,26,34.10
2012,08,05,14,27,34.00
2012,08,05,14,28,34.00
2012,08,05,14,29,34.10
2012,08,05,14,30,34.10
2012,08,05,14,31,34.10
2012,08,05,14,32,34.10
2012,08,05,14,33,34.10
2012,08,05,14,34,34.20
2012,08,05,14,35,34.30
2012,08,05,14,36,34.50
2012,08,05,14,37,34.60
2012,08,05,14,38,34.70
2012,08,05,14,39,34.70
2012,08,05,14,40,34.70
2012,08,05,14,41,34.60
2012,08,05,14,42,34.60
2012,08,05,14,43,34.60
2012,08,05,14,44,34.50
2012,08,05,14,45,34.40
2012,08,05,14,46,34.30
2012,08,05,14,47,34.20
2012,08,05,14,48,34.20
2012,08,05,14,49,34.10
2012,08,05,14,50,34.10
2012,08,05,14,51,34.00
2012,08,05,14,52,34.00
2012,08,05,14,53,34.10
2012,08,05,14,54,34.20
2012,08,05,14,55,34.30
2012,08,05,14,56,34.30
2012,08,05,14,57,34.30
2012,08,05,14,58,34.30
2012,08,05,14,59,34.30
2012,08,05,15,00,34.30
2012,08,05,15,01,34.30
2012,08,05,15,02,34.20
2012,08,05,15,03,34.20
2012,08,05,15,04,34.20
2012,08,05,15,05,34.20
2012,08,05,15,06,34.20
2012,08,05,15,07,34.30
2012,08,05,15,08,34.30
2012,08,05,15,09,34.30
2012,08,05,15,10,34.30
2012,08,05,15,11,34.40
2012,08,05,15,12,34.40
2012,08,05,15,13,34.40
2012,08,05,15,14,34.40
2012,08,05,15,15,34.50
2012,08,05,15,16,34.50
2012,08,05,15,17,34.60
2012,08,05,15,18,34.60
2012,08,05,15,19,34.60
2012,08,05,15,20,34.60
2012,08,05,15,21,34.60
2012,08,05,15,22,34.60
2012,08,05,15,23,34.60
2012,08,05,15,24,34.60
2012,08,05,15,25,34.60
2012,08,05,15,26,34.60
2012,08,05,15,27,34.60
2012,08,05,15,28,34.60
2012,08,05,15,29,34.50
2012,08,05,15,30,34.50
2012,08,05,15,31,34.60
2012,08,05,15,32,34.60
2012,08,05,15,33,34.60
2012,08,05,15,34,34.60
2012,08,05,15,35,34.60
2012,08,05,15,36,34.60
2012,08,05,15,37,34.60
2012,08,05,15,38,34.70
2012,08,05,15,39,34.60
2012,08,05,15,40,34.60
2012,08,05,15,41,34.60
2012,08,05,15,42,34.50
2012,08,05,15,43,34.50
2012,08,05,15,44,34.50
2012,08,05,15,45,34.50
2012,08,05,15,46,34.40
2012,08,05,15,47,34.40
2012,08,05,15,48,34.40
2012,08,05,15,49,34.40
2012,08,05,15,50,34.30
2012,08,05,15,51,34.30
2012,08,05,15,52,34.30
2012,08,05,15,53,34.30
2012,08,05,15,54,34.30
2012,08,05,15,55,34.30
2012,08,05,15,56,34.30
2012,08,05,15,57,34.30
2012,08,05,15,58,34.40
2012,08,05,15,59,34.40
2012,08,05,16,00,34.40
2012,08,05,16,01,34.40
2012,08,05,16,02,34.50
2012,08,05,16,03,34.40
2012,08,05,16,04,34.40
2012,08,05,16,05,34.30
2012,08,05,16,06,34.30
2012,08,05,16,07,34.20
2012,08,05,16,08,34.20
2012,08,05,16,09,34.20
2012,08,05,16,10,34.20
2012,08,05,16,11,34.20
2012,08,05,16,12,34.20
2012,08,05,16,13,34.20
2012,08,05,16,14,34.20
2012,08,05,16,15,34.20
2012,08,05,16,16,34.20
2012,08,05,16,17,34.20
2012,08,05,16,18,34.10
2012,08,05,16,19,34.10
2012,08,05,16,20,34.10
2012,08,05,16,21,34.10
2012,08,05,16,22,34.10
2012,08,05,16,23,34.20
2012,08,05,16,24,34.20
2012,08,05,16,25,34.20
2012,08,05,16,26,34.10
2012,08,05,16,27,34.10
2012,08,05,16,28,34.10
2012,08,05,16,29,34.10
2012,08,05,16,30,34.10
2012,08,05,16,31,34.10
2012,08,05,16,32,34.10
2012,08,05,16,33,34.20
2012,08,05,16,34,34.20
2012,08,05,16,35,34.20
2012,08,05,16,36,34.20
2012,08,05,16,37,34.20
2012,08,05,16,38,34.20
2012,08,05,16,39,34.20
2012,08,05,16,40,34.20
2012,08,05,16,41,34.10
2012,08,05,16,42,34.10
2012,08,05,16,43,34.00
2012,08,05,16,44,34.00
2012,08,05,16,45,33.90
2012,08,05,16,46,33.90
2012,08,05,16,47,34.00
2012,08,05,16,48,34.00
2012,08,05,16,49,34.00
2012,08,05,16,50,34.00
2012,08,05,16,51,33.90
2012,08,05,16,52,33.90
2012,08,05,16,53,33.90
2012,08,05,16,54,33.80
2012,08,05,16,55,33.90
2012,08,05,16,56,33.90
2012,08,05,16,57,33.90
2012,08,05,16,58,33.90
2012,08,05,16,59,33.90
2012,08,05,17,00,33.90
2012,08,05,17,01,33.90
2012,08,05,17,02,33.90
2012,08,05,17,03,33.80
2012,08,05,17,04,33.80
2012,08,05,17,05,33.80
2012,08,05,17,06,33.80
2012,08,05,17,07,33.80
2012,08,05,17,08,33.70
2012,08,05,17,09,33.60
2012,08,05,17,10,33.60
2012,08,05,17,11,33.60
2012,08,05,17,12,33.60
2012,08,05,17,13,33.60
2012,08,05,17,14,33.60
2012,08,05,17,15,33.50
2012,08,05,17,16,33.50
2012,08,05,17,17,33.40
2012,08,05,17,18,33.40
2012,08,05,17,19,33.30